Location: Gammelsbach
(49.5261°N, 8.9630°E)
Time: 04:40:58
(UTC+00:00)

Cosmos 1190 Rocket - Pass Details

Date: 17 June 2025
Orbit: 753 x 775 km, 74.1° (Epoch: 12 July)

Event Time Altitude Azimuth Distance (km) Brightness Sun altitude
Exits shadow 22:59:07 19° 216° (SW) 1,776 5.5 -16.8°
Maximum altitude 23:02:55 68° 296° (WNW) 833 4.2 -16.9°
Drops below altitude 10° 23:08:11 10° 20° (NNE) 2,321 7.5 -17.0°
Sets 23:10:35 0° 23° (NNE) 3,249 8.4 -17.0°
